[[{"header":{"parameterUnit":"m.s-1","parameterCategory":1,"la1":30.2991,"la2":30.254,"lo1":-89.0895,"lo2":-89.0444,"dy":0.0017,"dx":0.0017,"nx":28,"ny":28,"refTime":"2025-11-07T09:00:00:Z","depth":0,"parameterNumber":2,"parameterNumberName":"U-component_of_WINDS"},"data":[0,0,0,0,0,0,0,0,0,0,0,0,0,0,0,0,0,0,0,0,0,0,0,0,0,0,0,0,0,0,0,0,0,0,0,0,0,0,0,0,0,0,0,0,0,0,0,0,0,0,0,0,0,0,0,0,0,0,1.1595,1.1596,0,1.1654,1.1654,1.1655,1.171,1.1711,1.1712,1.1713,1.1774,1.1775,1.1776,0,0,0,0,0,0,0,0,0,0,0,0,0,1.1538,1.1538,1.1595,1.1596,1.1597,1.1654,1.1654,1.1655,1.171,1.1711,1.1712,1.1713,1.1774,1.1775,1.1776,0,0,0,0,0,0,0,0,0,0,0,0,0,1.1576,1.1539,1.1595,1.1631,1.1635,1.1653,1.1654,1.1655,1.171,1.1711,1.1712,1.1713,1.1773,1.1775,1.1776,1.1765,0,0,1.1781,1.1781,0,0,0,0,0,0,0,0,1.1574,1.1578,1.1625,1.1629,1.1633,1.1676,1.1657,1.1692,1.171,1.1682,1.1713,1.1714,1.1741,1.1745,1.1754,1.1767,1.177,1.1781,1.1782,1.1782,1.1783,0,0,0,0,0,0,0,1.1571,1.1576,1.1618,1.1626,1.163,1.1646,1.1653,1.1664,1.1705,1.1684,1.1688,1.1694,1.1743,1.1752,1.1755,1.1771,1.1781,1.1782,1.1783,1.1784,1.1784,1.1784,0,0,0,0,0,0,1.1562,1.1573,1.1617,1.162,1.1605,1.1646,1.1654,1.1661,1.1705,1.1712,1.1693,1.1697,1.1749,1.1754,1.1758,1.175,1.1782,1.1784,1.1785,1.1785,1.1784,1.1783,0,0,0,0,0,0,1.1561,1.1565,1.1614,1.1598,1.1605,1.1646,1.1654,1.1662,1.1671,1.1712,1.172,1.1695,1.175,1.1756,1.1764,1.1753,1.1785,1.1786,1.1786,1.1785,1.1784,1.1732,0,0,0,0,0,0,1.1559,1.1565,1.1558,1.1597,1.1606,1.1617,1.1653,1.1662,1.1673,1.1678,1.1715,1.1722,1.1751,1.1761,1.1765,1.1755,1.1787,1.1787,1.1786,1.1784,1.1735,1.1729,1.1724,0,0,0,0,0,1.1557,1.1541,1.1558,1.1563,1.1599,1.1616,1.1621,1.1654,1.1671,1.1667,1.1695,1.1721,1.1754,1.1761,1.1766,1.1757,1.1788,1.1786,1.1784,1.1737,1.173,1.1724,0,0,0,0,0,0,1.1499,1.1546,1.1566,1.1562,1.1584,1.1625,1.162,1.1645,1.1663,1.1667,1.1709,1.1717,1.1721,1.174,1.1748,1.1751,1.1775,1.1774,1.1737,1.1731,1.1726,1.1721,1.1788,0,0,0,0,0,1.1486,1.1494,1.1536,1.1528,1.1539,1.1578,1.1586,1.1611,1.1636,1.1646,1.1674,1.1698,1.1715,1.1724,1.1741,1.1739,1.175,1.1736,1.173,1.1726,1.1724,1.1728,1.1723,1.1777,1.1777,1.1777,0,0,1.1458,1.1485,1.1488,1.1518,1.1538,1.1548,1.1585,1.1593,1.1601,1.1647,1.1656,1.1679,1.1709,1.1713,1.1716,1.1729,1.1712,1.1723,1.1719,1.172,1.1726,1.1721,1.1716,1.1775,1.1776,1.1776,0,0,1.1413,1.1434,1.1431,1.1452,1.1484,1.1511,1.151,1.1549,1.1565,1.1576,1.1612,1.1624,1.165,1.1672,1.1686,1.1657,1.1683,1.1662,1.1633,1.1637,1.1633,1.163,1.1621,1.1617,1.1661,1.166,1.166,0,1.1375,1.1389,1.1427,1.1434,1.1448,1.1492,1.1492,1.1511,1.1546,1.1556,1.157,1.1608,1.1631,1.1643,1.1636,1.1646,1.1649,1.1656,1.163,1.1627,1.1625,1.1617,1.1614,1.1658,1.1658,1.1658,1.1659,0,1.1343,1.1353,1.1348,1.1382,1.1396,1.1399,1.144,1.145,1.1475,1.1501,1.1515,1.1546,1.1572,1.1577,1.16,1.1593,1.1601,1.1622,1.1647,1.1616,1.161,1.1607,1.1654,1.1655,1.1656,1.1656,0,0,1.1258,1.1317,1.1314,1.1332,1.1373,1.1383,1.1391,1.1417,1.1426,1.1451,1.146,1.1485,1.1507,1.1523,1.1551,1.1555,1.1533,1.1577,1.1578,1.1568,1.1531,1.1514,1.151,1.1552,1.1552,1.1551,1.1529,0,1.122,1.1234,1.1271,1.1275,1.1288,1.1333,1.1341,1.1368,1.1395,1.1411,1.1442,1.1459,1.1486,1.1497,1.1503,1.1534,1.1526,1.1537,1.1563,1.1563,1.1552,1.1506,1.1487,1.1463,1.1526,1.1526,1.1526,0,1.1175,1.1199,1.1204,1.1249,1.1256,1.1261,1.1291,1.1306,1.134,1.136,1.1381,1.1413,1.1428,1.1452,1.1475,1.1481,1.1495,1.1513,1.1513,1.1516,1.1541,1.1508,1.1456,1.1453,1.1522,1.1522,1.1523,0,1.1114,1.1148,1.1156,1.117,1.1222,1.1226,1.1248,1.1284,1.1299,1.1326,1.1337,1.1366,1.1381,1.1404,1.1445,1.1458,1.1464,1.1491,1.1482,1.1481,1.1479,1.1478,1.1429,1.1489,1.1489,1.1489,1.1489,0,1.1067,1.1069,1.113,1.1135,1.114,1.1186,1.119,1.1217,1.125,1.1263,1.1306,1.1318,1.1371,1.139,1.1422,1.1438,1.1444,1.1463,1.1471,1.1458,1.1456,1.1466,1.1469,1.1488,1.1488,1.1489,1.1489,0,1.0998,1.1039,1.1051,1.1102,1.1115,1.1116,1.1161,1.1169,1.1201,1.1218,1.1225,1.1275,1.1301,1.1344,1.1382,1.1405,1.1414,1.1428,1.1402,1.1407,1.1396,1.1397,1.1351,1.1349,1.141,1.1409,1.1409,0,1.0964,1.0967,1.1019,1.1031,1.1052,1.1071,1.1087,1.1135,1.1151,1.1194,1.1198,1.1228,1.1253,1.1293,1.1334,1.1365,1.1381,1.1363,1.1385,1.1374,1.1382,1.1381,1.1382,1.1357,1.1356,1.1355,1.1355,0,1.0901,1.0923,1.0944,1.0975,1.0994,1.102,1.1048,1.1056,1.1111,1.1128,1.1155,1.1175,1.1217,1.1246,1.1284,1.131,1.1342,1.1348,1.1348,1.1334,1.1319,1.1328,1.1388,1.1348,1.1349,1.1349,1.135,1.135,1.0849,1.0855,1.0894,1.0918,1.0946,1.0973,1.0984,1.1019,1.1042,1.1079,1.1107,1.1133,1.1174,1.1228,1.1254,1.1277,1.1291,1.129,1.129,1.1289,1.1285,1.1317,1.1284,1.1284,1.1285,1.1285,1.1285,0,1.0788,1.0817,1.0839,1.0879,1.0899,1.093,1.0965,1.098,1.1002,1.1037,1.1063,1.1097,1.1128,1.1174,1.1209,1.122,1.1236,1.1227,1.1226,1.1233,1.1269,1.1266,1.1214,1.1214,1.1214,1.1214,1.1214,1.1214,1.0759,1.0772,1.0799,1.0829,1.0858,1.0883,1.0901,1.0928,1.0957,1.0993,1.1019,1.1049,1.109,1.113,1.1161,1.1174,1.1185,1.1172,1.119,1.1223,1.1229,1.1236,1.1233,1.1175,1.1174,1.1152,1.1151,1.1151]},{"header":{"parameterUnit":"m.s-1","parameterCategory":1,"la1":30.2991,"la2":30.254,"lo1":-89.0895,"lo2":-89.0444,"dy":0.0017,"dx":0.0017,"nx":28,"ny":28,"refTime":"2025-11-07T09:00:00:Z","depth":0,"parameterNumber":3,"parameterNumberName":"V-component_of_WINDS"},"data":[0,0,0,0,0,0,0,0,0,0,0,0,0,0,0,0,0,0,0,0,0,0,0,0,0,0,0,0,0,0,0,0,0,0,0,0,0,0,0,0,0,0,0,0,0,0,0,0,0,0,0,0,0,0,0,0,0,0,3.2425,3.2426,0,3.2522,3.2523,3.2524,3.259,3.2591,3.2591,3.2592,3.2685,3.2687,3.2689,0,0,0,0,0,0,0,0,0,0,0,0,0,3.2292,3.2294,3.2424,3.2426,3.2427,3.2521,3.2523,3.2524,3.259,3.2591,3.2591,3.2592,3.2684,3.2687,3.2689,0,0,0,0,0,0,0,0,0,0,0,0,0,3.2365,3.2295,3.2424,3.2471,3.2477,3.2521,3.2523,3.2524,3.259,3.2591,3.2592,3.2592,3.2683,3.2686,3.2689,3.2693,0,0,3.2698,3.27,0,0,0,0,0,0,0,0,3.2361,3.237,3.2463,3.2468,3.2474,3.2545,3.251,3.258,3.259,3.2547,3.2592,3.2593,3.2637,3.2644,3.266,3.2697,3.2701,3.2699,3.2701,3.2702,3.2703,0,0,0,0,0,0,0,3.2356,3.2366,3.2463,3.2465,3.2471,3.2486,3.2498,3.2524,3.2586,3.2551,3.2556,3.2567,3.264,3.2657,3.2663,3.2702,3.2699,3.2701,3.2703,3.2704,3.2748,3.2747,0,0,0,0,0,0,3.2344,3.2361,3.246,3.2466,3.2418,3.2488,3.2501,3.2521,3.2586,3.2597,3.2566,3.2569,3.2652,3.2659,3.2667,3.2676,3.2702,3.2705,3.2706,3.2748,3.2748,3.2747,0,0,0,0,0,0,3.2341,3.2352,3.2456,3.2415,3.2429,3.249,3.2512,3.2523,3.254,3.2598,3.2609,3.2572,3.2653,3.2662,3.2686,3.268,3.2706,3.2709,3.2749,3.2748,3.2747,3.2694,0,0,0,0,0,0,3.2337,3.2351,3.2353,3.2415,3.2431,3.2475,3.2512,3.2524,3.2546,3.2551,3.2607,3.2616,3.2654,3.2682,3.2689,3.2685,3.2711,3.275,3.2749,3.2748,3.2696,3.2691,3.2687,0,0,0,0,0,3.2332,3.2333,3.2353,3.2365,3.2436,3.2475,3.2484,3.2529,3.2545,3.2548,3.2585,3.2615,3.2679,3.2683,3.2693,3.2689,3.2751,3.2749,3.2748,3.2699,3.2692,3.2687,0,0,0,0,0,0,3.2267,3.2342,3.2365,3.2386,3.2424,3.2486,3.2491,3.2521,3.2553,3.2556,3.2609,3.2621,3.264,3.2667,3.267,3.2696,3.2719,3.2719,3.2678,3.2672,3.2668,3.2661,3.2714,0,0,0,0,0,3.2255,3.2282,3.2345,3.2357,3.2376,3.243,3.2448,3.248,3.252,3.2536,3.2575,3.2611,3.264,3.2658,3.2687,3.2701,3.2714,3.2703,3.2698,3.2693,3.2693,3.2703,3.2699,3.2742,3.2742,3.2742,0,0,3.2231,3.2275,3.2288,3.2346,3.2379,3.2404,3.2443,3.2467,3.2486,3.2539,3.2565,3.2595,3.2639,3.2658,3.2668,3.2681,3.2684,3.2691,3.2688,3.269,3.2701,3.2697,3.2694,3.2741,3.2741,3.2742,0,0,3.22,3.2236,3.2251,3.2284,3.2335,3.2371,3.2374,3.2433,3.2455,3.2483,3.2523,3.2546,3.2594,3.2624,3.2646,3.2628,3.2657,3.2636,3.261,3.262,3.2616,3.2614,3.2608,3.2605,3.2635,3.2635,3.2635,0,3.2163,3.2204,3.2255,3.2278,3.2302,3.2353,3.2369,3.2398,3.2454,3.2469,3.2482,3.2546,3.2578,3.2606,3.2602,3.2618,3.2623,3.263,3.2613,3.2611,3.2609,3.2604,3.2602,3.2632,3.2633,3.2633,3.2633,0,3.2157,3.2185,3.2191,3.2247,3.2272,3.229,3.2343,3.2361,3.2391,3.2425,3.2453,3.2495,3.2535,3.2543,3.2571,3.2575,3.2582,3.2603,3.2627,3.2601,3.2598,3.2596,3.2628,3.2629,3.263,3.2631,0,0,3.2087,3.2172,3.2174,3.2201,3.2261,3.2282,3.2303,3.2345,3.236,3.2397,3.2416,3.2456,3.2478,3.2502,3.2534,3.2542,3.2527,3.2563,3.2565,3.2556,3.2535,3.2519,3.2516,3.2546,3.2546,3.2546,3.2532,0,3.2065,3.2109,3.2155,3.2182,3.2208,3.2258,3.2277,3.2315,3.2348,3.2374,3.2409,3.2438,3.2463,3.2479,3.2489,3.2527,3.2523,3.2528,3.2564,3.2564,3.2552,3.2514,3.2497,3.2481,3.253,3.253,3.253,0,3.2046,3.2084,3.2114,3.2173,3.2186,3.2202,3.2245,3.2269,3.2313,3.2337,3.2365,3.24,3.2424,3.2445,3.2478,3.248,3.2498,3.2518,3.2519,3.2524,3.2546,3.2519,3.2477,3.2475,3.2528,3.2528,3.2529,0,3.1994,3.2052,3.2078,3.2099,3.2168,3.2179,3.2207,3.2253,3.2275,3.2311,3.2326,3.2363,3.2384,3.2412,3.2455,3.2466,3.2484,3.2508,3.2504,3.2503,3.2506,3.2505,3.2467,3.2515,3.2516,3.2516,3.2516,0,3.1966,3.1982,3.2055,3.2071,3.2091,3.2144,3.2161,3.2194,3.2234,3.2257,3.2301,3.2321,3.2377,3.2403,3.2437,3.246,3.2468,3.2488,3.2497,3.2484,3.2482,3.2497,3.2499,3.2515,3.2515,3.2515,3.2515,0,3.191,3.196,3.1992,3.2056,3.2072,3.2084,3.2138,3.2155,3.2191,3.2219,3.2228,3.2284,3.2318,3.2364,3.241,3.2433,3.2452,3.2466,3.2438,3.2443,3.2437,3.2437,3.2407,3.2406,3.2454,3.2453,3.2453,0,3.1889,3.1903,3.197,3.199,3.2018,3.2048,3.2072,3.2124,3.2147,3.2199,3.221,3.2247,3.228,3.233,3.2374,3.241,3.2425,3.2412,3.2431,3.2419,3.2426,3.2425,3.2427,3.2408,3.2407,3.2406,3.2406,0,3.1847,3.1872,3.1906,3.1948,3.1976,3.2012,3.2049,3.2062,3.2122,3.2145,3.2181,3.2207,3.2256,3.2292,3.2335,3.2363,3.2394,3.24,3.2401,3.2389,3.2373,3.2383,3.2427,3.24,3.2401,3.2401,3.2402,3.2402,3.1809,3.1825,3.1875,3.1911,3.1946,3.198,3.2,3.204,3.2071,3.2117,3.2145,3.218,3.2225,3.2285,3.2312,3.2339,3.2352,3.2353,3.2354,3.2353,3.235,3.2368,3.2347,3.2347,3.2347,3.2348,3.2348,0,3.177,3.1806,3.1839,3.1892,3.192,3.195,3.1993,3.2014,3.2045,3.2085,3.2117,3.2159,3.2195,3.2242,3.2281,3.2294,3.2309,3.2302,3.2302,3.2308,3.2336,3.2331,3.2289,3.2289,3.2289,3.2289,3.2289,3.2289,3.1754,3.1783,3.1813,3.1859,3.1894,3.193,3.1953,3.1985,3.2017,3.2062,3.2093,3.2125,3.2168,3.2211,3.2245,3.2258,3.227,3.2259,3.2276,3.2301,3.2306,3.2311,3.2308,3.2261,3.2261,3.2247,3.2247,3.2247]}]]